Torna al catalogo

USA 40 R/B DEB

LostHEO
NORAD 23373·DEBRIS·🇺🇸 United States

Lanciato Aug 8, 1989 da Cape Canaveral Space Force Station

Loading…

Prossimi Passaggi (prossime 24 ore)

TLE

ObsoletoSource: Space-Track

Epoca: May 27, 2026, 00:09 UTC

1 23373U 89061AV  26147.00650729  .00005579  00000-0  67025-2 0  9999
2 23373  57.0008 272.3298 3014615 207.2858 133.1448  8.74685092229618

Traccia USA 40 R/B DEB in tempo reale con AllMySat

Download on the App Store